Simultaneous Nadir Overpasses (SNOs) Predictions

Prediction of SNOs between METOP-B and NOAA-19 Satellite Orbit:

Table of predicted SNOs for the next 14.0 days since TLE Epoch: 3/2/2013
Index Date (METOP-B) Time (METOP-B) Lat,Lon (METOP-B) SZA (METOP-B ) Date (NOAA-19) Time (NOAA-19) Lat,Lon (NOAA-19) SZA (NOAA-19 ) Distance(km) Time Diff (sec)
1 03/05/2013 19:37:40 73.95,-119.57 79.77 03/05/2013 19:36:34 73.93,-122.82 79.93 99.81 66
2 03/05/2013 20:28:36 -73.23, 46.09 100.89 03/05/2013 20:27:26 -73.21, 46.11 100.89 2.14 70
3 03/05/2013 21:19:16 73.23,-146.58 79.10 03/05/2013 21:18:24 73.21,-146.61 79.09 2.86 52
4 03/05/2013 22:09:59 -73.16, 20.60 100.98 03/05/2013 22:09:30 -73.18, 20.67 100.96 3.08 29
5 03/05/2013 23:00:39 73.16,-172.07 79.01 03/05/2013 23:00:28 73.17,-172.05 79.03 1.35 11
6 03/05/2013 23:51:21 -73.14, -4.79 101.02 03/05/2013 23:51:34 -73.14, -4.76 101.03 0.81 13
7 03/06/2013 00:42:01 73.14, 162.54 78.97 03/06/2013 00:42:32 73.13, 162.51 78.96 1.24 31
8 03/06/2013 01:32:43 -73.12, -30.17 101.07 03/06/2013 01:33:38 -73.10, -30.20 101.09 2.27 55
9 03/06/2013 02:23:24 73.07, 137.05 78.88 03/06/2013 02:24:36 73.10, 137.07 78.89 3.19 72
10 03/15/2013 20:21:39 -73.24, 47.85 104.83 03/15/2013 20:20:28 -73.23, 47.86 104.82 0.26 71
11 03/15/2013 21:12:19 73.20,-144.89 75.13 03/15/2013 21:11:25 73.19,-144.79 75.13 3.18 54
12 03/15/2013 22:03:01 -73.22, 22.47 104.87 03/15/2013 22:02:32 -73.20, 22.42 104.88 2.47 29
13 03/15/2013 22:53:41 73.18,-170.27 75.09 03/15/2013 22:53:29 73.16,-170.23 75.06 3.03 12
14 03/15/2013 23:44:24 -73.15, -3.03 104.96 03/15/2013 23:44:36 -73.16, -3.02 104.95 1.94 12
15 03/16/2013 00:35:04 73.11, 164.24 75.00 03/16/2013 00:35:33 73.12, 164.33 75.00 3.24 29
16 03/16/2013 01:25:46 -73.13, -28.41 105.01 03/16/2013 01:26:40 -73.13, -28.46 105.02 1.66 54
17 03/16/2013 02:16:26 73.09, 138.85 74.95 03/16/2013 02:17:37 73.09, 138.89 74.93 1.38 71




NCC Satellite Simultaneous Nadir Overpasses (SNOs) Prediction Service
